Tracking 27079 objects as of 24-Mar-2023
HD Live streaming from Space Station
objects crossing your sky now

CSO 2

Track CSO 2 now!
10-day predictions


NORAD ID: 47305
Int'l Code: 2020-104A
Perigee: 490.7 km
Apogee: 493.7 km
Inclination: 97.4 °
Period: 94.3 minutes
Semi major axis: 6863 km
RCS: Unknown
Launch date: December 29, 2020
Source: France (FR)
Launch site: FRENCH GUIANA (FRGUI)
Your satellite tracking list
Your tracking list is empty




NASA's NSSDC Master Catalog

Two Line Element Set (TLE):
1 47305U 20104A   22254.08044681 0.00000000  00000-0  00000-0 0    05
2 47305  97.3634 193.4710 0002196 121.4726 238.5594 15.26908160    03
Source of the keplerian elements: McCants